Location: Windsor
(43.2292°N, 89.3015°W)
Time: 09:08:36
(UTC+00:00)

Tiros 1 - Pass Details

Date: 02 June 2022
Orbit: 629 x 663 km, 48.4° (Epoch: 04 July)

Event Time Altitude Azimuth Distance (km) Brightness Sun altitude
Rises 06:57:13 0° 283° (WNW) 2,915 10.5 -23.0°
Reaches altitude 10° 06:59:37 10° 290° (WNW) 2,009 9.7 -22.9°
Maximum altitude 07:04:02 43° 2° (N) 886 8.2 -22.7°
Drops below altitude 10° 07:08:29 10° 75° (ENE) 2,023 10.1 -22.4°
Sets 07:10:55 0° 82° (E) 2,936 10.9 -22.3°
